"Pseudo-MPEC" for P113qgT

Created 2020 Aug 15 10:07:40 UT using Find_Orb

Click here for an explanation of pseudo-MPECs

 
 Astrometry: 
     P113qgT  C2020 07 31+NX]Astrometry*gEQs3lSgp-[d6+n,RAqCdmredacted;\v$@[SF51
     P113qgT  C2020 07 31R7?=hlP4yr*-SHw9pclick*k7!hH$RMx3P+qpI:bSNK3#Y5r,*=wF51
     P113qgT  C2020 07 31_+S.d+[ba9$2/MLKZUA,hD?WE7c).aim:wWX@rsYv+B#XG^giDU3F51
     P113qgT  C2020 08 01c22TPbkhere+U_(gfor9:-23explanation@.rf*=Jq,nLt19`eCF51
     P113qgT  C2020 08 01Mha\'CIA]0SpP;Cl[Md+EpSKDd+);aV)#m1Fp,*'_TWTw$6%hu$8F51

Station data:
(F51) Pan-STARRS 1, Haleakala  (N20.707235 W156.255910)  US/Hawaii.
   Observers N. Primak, A. Schultz, S. Watters, J. Thiel, T. Goggia. Measurer
   PS1 Science Consortium. 1.8-m Ritchey-Chrétien + CCD.

Orbital elements:  P113qgT
   Perihelion 2020 Feb 11.059841 +/- 67.2 TT =  1:26:10 (JD 2458890.559841)
Epoch 2020 Aug  1.0 TT = JDT 2459062.5   Earth MOID: 0.0240   AutoNEOCP
M 160.97352638 +/- 130              (J2000 ecliptic)
n   0.93621831 +/- 0.686            Peri.  194.14915 +/- 90
a   1.03486721 +/- 0.505            Node   346.22128 +/- 12
e   0.0184873 +/- 0.245             Incl.   18.62963 +/- 23
P   1.05/384.52d           H 20.5   G  0.15   U 12.5  SR
q 1.01573527 +/- 0.375    Q 1.05399914 +/- 10.4
From 5 observations 2020 July 31-Aug. 1 (24.3 hr); mean residual 0".20
Residuals in arcseconds: 
200731 F51  .23-  .31+    200731 F51  .42+  .18-    200801 F51  .05+  .06+    
200731 F51  .19-  .13-    200801 F51  .05-  .06-    

Ephemerides (geocentric):
Date (UTC) HH   RA              Dec         delta   r     elong  mag " sig PA
---- -- -- --  -------------   -----------  ------ ------ -----  --- ---- ---
2020 08 15 10  04 07 09.877   +26 11 46.92  .56999 1.0539  78.0 21.9 9613 140
2020 08 15 11  04 07 18.547   +26 13 32.17  .56993 1.0539  78.0 21.9 9680 140
2020 08 15 12  04 07 27.221   +26 15 17.41  .56987 1.0539  78.0 21.9 9747 140
2020 08 15 13  04 07 35.900   +26 17 02.63  .56981 1.0539  78.0 21.9 9815 140
2020 08 15 14  04 07 44.583   +26 18 47.84  .56975 1.0539  78.0 21.9 9883 140
2020 08 15 15  04 07 53.271   +26 20 33.04  .56969 1.0539  78.0 21.9 9951 140
2020 08 15 16  04 08 01.964   +26 22 18.22  .56963 1.0539  78.0 21.9 167' 140
2020 08 15 17  04 08 10.662   +26 24 03.39  .56957 1.0539  78.0 21.9 168' 140
2020 08 15 18  04 08 19.364   +26 25 48.54  .56951 1.0539  78.0 21.9 169' 140
2020 08 15 19  04 08 28.071   +26 27 33.68  .56945 1.0539  78.0 21.9 170' 140
2020 08 15 20  04 08 36.783   +26 29 18.80  .56940 1.0539  78.0 21.9 172' 140
2020 08 15 21  04 08 45.499   +26 31 03.91  .56934 1.0539  78.0 21.9 173' 140
2020 08 15 22  04 08 54.220   +26 32 49.00  .56928 1.0539  78.0 21.9 174' 140
2020 08 15 23  04 09 02.946   +26 34 34.08  .56922 1.0539  78.0 21.9 175' 140
2020 08 16 00  04 09 11.676   +26 36 19.14  .56916 1.0539  78.1 21.9 176' 140
2020 08 16 01  04 09 20.411   +26 38 04.19  .56910 1.0539  78.1 21.9 178' 140
2020 08 16 02  04 09 29.151   +26 39 49.22  .56904 1.0539  78.1 21.9 179' 140
2020 08 16 03  04 09 37.896   +26 41 34.24  .56899 1.0539  78.1 21.9 180' 140
2020 08 16 04  04 09 46.646   +26 43 19.24  .56893 1.0539  78.1 21.9 181' 140
2020 08 16 05  04 09 55.400   +26 45 04.23  .56887 1.0539  78.1 21.9 182' 140
2020 08 16 06  04 10 04.159   +26 46 49.20  .56881 1.0539  78.1 21.9 184' 140
2020 08 16 07  04 10 12.922   +26 48 34.15  .56875 1.0539  78.1 21.9 185' 140
2020 08 16 08  04 10 21.691   +26 50 19.09  .56869 1.0539  78.1 21.9 186' 140
2020 08 16 09  04 10 30.464   +26 52 04.02  .56864 1.0539  78.1 21.9 187' 140
2020 08 16 10  04 10 39.242   +26 53 48.93  .56858 1.0539  78.1 21.9 189' 140
2020 08 16 11  04 10 48.025   +26 55 33.82  .56852 1.0539  78.1 21.9 190' 140
2020 08 16 12  04 10 56.812   +26 57 18.69  .56846 1.0539  78.1 21.9 191' 140
2020 08 16 13  04 11 05.605   +26 59 03.55  .56841 1.0539  78.1 21.9 192' 141
2020 08 16 14  04 11 14.402   +27 00 48.40  .56835 1.0539  78.1 21.9 194' 141
2020 08 16 15  04 11 23.204   +27 02 33.23  .56829 1.0539  78.1 21.9 195' 141
2020 08 16 16  04 11 32.011   +27 04 18.04  .56823 1.0539  78.1 21.9 196' 141
2020 08 16 17  04 11 40.822   +27 06 02.83  .56818 1.0539  78.1 21.9 197' 141
2020 08 16 18  04 11 49.638   +27 07 47.61  .56812 1.0539  78.1 21.9 199' 141
2020 08 16 19  04 11 58.460   +27 09 32.37  .56806 1.0539  78.1 21.9 200' 141
2020 08 16 20  04 12 07.286   +27 11 17.12  .56800 1.0539  78.1 21.9 201' 141
2020 08 16 21  04 12 16.117   +27 13 01.84  .56795 1.0540  78.1 21.9 203' 141
2020 08 16 22  04 12 24.952   +27 14 46.56  .56789 1.0540  78.1 21.9 204' 141
2020 08 16 23  04 12 33.793   +27 16 31.25  .56783 1.0540  78.1 21.9 205' 141
2020 08 17 00  04 12 42.638   +27 18 15.93  .56778 1.0540  78.1 21.9 207' 141
2020 08 17 01  04 12 51.488   +27 20 00.59  .56772 1.0540  78.1 21.9 208' 141
2020 08 17 02  04 13 00.343   +27 21 45.23  .56766 1.0540  78.1 21.9 209' 141
2020 08 17 03  04 13 09.203   +27 23 29.85  .56761 1.0540  78.1 21.9 211' 141
2020 08 17 04  04 13 18.068   +27 25 14.46  .56755 1.0540  78.1 21.9 212' 141
2020 08 17 05  04 13 26.938   +27 26 59.05  .56749 1.0540  78.1 21.9 213' 141
2020 08 17 06  04 13 35.812   +27 28 43.62  .56744 1.0540  78.1 21.9 215' 141
2020 08 17 07  04 13 44.692   +27 30 28.18  .56738 1.0540  78.1 21.9 216' 141
2020 08 17 08  04 13 53.576   +27 32 12.72  .56732 1.0540  78.1 21.9 217' 141
2020 08 17 09  04 14 02.465   +27 33 57.24  .56727 1.0540  78.1 21.9 219' 141